GW0353 Weather Reports


time (UTC)temp
C
wind
direction
speed
KPH
gust
KPH
rain 1hr
cm
rain 24hr
cm
rain mn
cm
humidity
%
barometer
mb
20260504031604 7 0 0.0 3.2 0.00 0.00 0.00 63 1015.5
20260504031101 7 0 0.0 1.6 0.00 0.00 0.00 64 1015.5
20260504030558 7 0 0.0 1.6 0.00 0.00 0.00 64 1015.4
20260504030058 7 0 0.0 3.2 0.00 0.00 0.00 64 1015.4
20260504025557 7 0 0.0 3.2 0.00 0.00 0.00 64 1015.3
20260504025057 7 15 0.0 3.2 0.00 0.00 0.00 64 1015.2
20260504024600 7 53 0.0 3.2 0.00 0.00 0.00 64 1015.2
20260504024056 7 0 0.0 8.0 0.00 0.00 0.00 64 1015.1
20260504023557 7 0 1.6 8.0 0.00 0.00 0.00 65 1014.9
20260504023058 7 48 0.0 8.0 0.00 0.00 0.00 65 1014.9
20260504022557 7 64 4.8 8.0 0.00 0.00 0.00 64 1014.7
20260504022057 8 41 0.0 3.2 0.00 0.00 0.00 62 1014.6
20260504021557 8 68 0.0 3.2 0.00 0.00 0.00 59 1014.7
20260504021055 8 0 0.0 3.2 0.00 0.00 0.00 57 1014.7
20260504020555 9 199 0.0 3.2 0.00 0.00 0.00 55 1014.7
20260504020104 9 0 0.0 1.6 0.00 0.00 0.00 54 1014.7
20260504015557 10 248 0.0 4.8 0.00 0.00 0.00 55 1014.7
20260504015058 10 302 0.0 8.0 0.00 0.00 0.00 55 1014.6
20260504014605 10 298 1.6 9.7 0.00 0.00 0.00 54 1014.6
20260504014058 10 282 3.2 9.7 0.00 0.00 0.00 52 1014.4
20260504013558 10 127 1.6 9.7 0.00 0.00 0.00 48 1014.4
20260504013106 10 250 1.6 8.0 0.00 0.00 0.00 44 1014.4
20260504012559 11 23 3.2 8.0 0.00 0.00 0.00 45 1014.3
20260504012058 11 290 3.2 16.1 0.00 0.00 0.00 45 1014.2
20260504011600 11 299 6.4 16.1 0.00 0.00 0.00 43 1014.2
20260504011100 11 42 1.6 11.3 0.00 0.00 0.00 42 1014.2
20260504010557 11 307 0.0 22.5 0.00 0.00 0.00 43 1014.2
20260504010059 10 87 4.8 29.0 0.00 0.00 0.00 43 1014.1
20260504005559 10 127 9.7 29.0 0.00 0.00 0.00 45 1014.0
20260504005100 10 167 12.9 29.0 0.00 0.00 0.00 46 1014.2
20260504004606 10 179 12.9 27.4 0.00 0.00 0.00 47 1014.5
20260504004059 10 237 9.7 27.4 0.00 0.00 0.00 46 1014.4
20260504003559 10 219 6.4 16.1 0.00 0.00 0.00 48 1014.4
20260504003058 9 242 3.2 17.7 0.00 0.00 0.00 52 1014.2
20260504002605 8 130 4.8 17.7 0.00 0.00 0.00 57 1014.4
20260504002100 8 159 3.2 27.4 0.00 0.00 0.00 58 1014.5
20260504001602 9 159 8.0 27.4 0.00 0.00 0.00 56 1014.8
20260504001058 9 168 11.3 27.4 0.00 0.00 0.00 54 1014.9
20260504000559 9 246 8.0 22.5 0.00 0.00 0.00 56 1014.8
20260503235600 10 266 9.7 35.4 0.00 0.00 0.00 51 1014.7
20260503235058 10 185 12.9 35.4 0.00 0.00 0.00 47 1015.1
20260503234558 11 188 17.7 32.2 0.00 0.00 0.00 43 1014.8
20260503234058 11 162 9.7 22.5 0.00 0.00 0.00 42 1014.8
20260503233600 11 154 4.8 19.3 0.00 0.00 0.00 41 1014.7
20260503233058 11 210 1.6 14.5 0.00 0.00 0.00 43 1014.6
20260503232558 11 256 3.2 14.5 0.00 0.00 0.00 40 1014.6
20260503232058 11 311 4.8 19.3 0.00 0.00 0.00 43 1014.5
20260503231607 12 327 9.7 19.3 0.00 0.00 0.00 43 1014.5
20260503231059 12 324 1.6 8.0 0.00 0.00 0.00 44 1014.8
20260503230559 13 358 3.2 8.0 0.00 0.00 0.00 39 1014.9
20260503230116 13 76 1.6 6.4 0.00 0.00 0.00 38 1014.6
20260503225558 14 328 3.2 6.4 0.00 0.00 0.00 35 1014.5
20260503225058 14 352 0.0 6.4 0.00 0.00 0.00 36 1014.4
20260503224603 14 238 0.0 6.4 0.00 0.00 0.00 37 1014.5
20260503224058 13 322 0.0 8.0 0.00 0.00 0.00 37 1014.7
20260503223558 13 0 1.6 8.0 0.00 0.00 0.00 40 1014.6
20260503223059 13 234 0.0 8.0 0.00 0.00 0.00 40 1015.0
20260503222559 13 306 3.2 16.1 0.00 0.00 0.00 38 1014.9
20260503222058 13 239 3.2 20.9 0.00 0.00 0.00 42 1014.8
20260503221602 14 324 4.8 24.1 0.00 0.00 0.00 41 1014.9
20260503221101 13 307 8.0 24.1 0.00 0.00 0.00 42 1015.0
20260503220558 14 259 8.0 24.1 0.00 0.00 0.00 42 1015.2
20260503220058 13 276 6.4 12.9 0.00 0.00 0.00 43 1015.2
20260503215558 13 254 1.6 9.7 0.00 0.00 0.00 45 1015.4
20260503215058 12 243 1.6 9.7 0.00 0.00 0.00 45 1015.5
20260503214603 12 265 0.0 8.0 0.00 0.00 0.00 44 1015.6
20260503214058 12 0 0.0 17.7 0.00 0.00 0.00 43 1015.5
20260503213558 11 0 3.2 20.9 0.00 0.00 0.00 42 1015.5
20260503213108 11 57 9.7 20.9 0.00 0.00 0.00 43 1015.6
20260503212559 11 67 1.6 12.9 0.00 0.00 0.00 44 1015.7
20260503212058 10 46 3.2 12.9 0.00 0.00 0.00 50 1015.5
20260503211613 10 337 4.8 12.9 0.00 0.00 0.00 54 1015.2
20260503211058 10 325 3.2 16.1 0.00 0.00 0.00 61 1015.5
20260503210558 9 266 3.2 20.9 0.00 0.00 0.00 61 1016.1
20260503210059 9 239 6.4 24.1 0.00 0.00 0.00 61 1016.5
20260503205558 9 191 9.7 24.1 0.00 0.00 0.00 61 1016.7
20260503205058 10 148 8.0 20.9 0.00 0.00 0.00 60 1016.9
20260503204559 10 219 8.0 19.3 0.00 0.00 0.00 56 1016.4
20260503204057 10 176 9.7 19.3 0.00 0.00 0.00 53 1016.3
20260503203559 11 210 9.7 19.3 0.00 0.00 0.00 52 1016.4
20260503203059 11 180 9.7 19.3 0.00 0.00 0.00 47 1016.4
20260503202559 11 153 1.6 20.9 0.00 0.00 0.00 48 1016.0
20260503202104 11 0 1.6 20.9 0.00 0.00 0.00 51 1015.8
20260503201559 11 154 6.4 19.3 0.00 0.00 0.00 51 1016.1
20260503201058 11 137 3.2 19.3 0.00 0.00 0.00 51 1016.0
20260503200558 11 287 8.0 24.1 0.00 0.00 0.00 48 1016.0
20260503200118 11 178 6.4 24.1 0.00 0.00 0.00 48 1016.4
20260503195558 12 198 6.4 25.7 0.00 0.00 0.00 46 1016.4
20260503195058 12 181 6.4 32.2 0.00 0.00 0.00 42 1016.4
20260503194604 12 139 12.9 32.2 0.00 0.00 0.00 37 1016.4
20260503194058 12 136 16.1 33.8 0.00 0.00 0.00 37 1016.4
20260503193559 12 124 17.7 35.4 0.00 0.00 0.00 37 1016.4
20260503193104 12 119 9.7 35.4 0.00 0.00 0.00 38 1016.4
20260503192558 12 143 20.9 45.1 0.00 0.00 0.00 38 1016.5
20260503192058 13 98 19.3 45.1 0.00 0.00 0.00 37 1016.4
20260503191606 13 150 16.1 35.4 0.00 0.00 0.00 36 1016.4
20260503191059 13 209 16.1 35.4 0.00 0.00 0.00 35 1016.2
20260503190558 13 141 12.9 37.0 0.00 0.00 0.00 36 1016.0
20260503190056 13 142 20.9 46.7 0.00 0.00 0.00 35 1016.0
20260503185558 14 153 22.5 46.7 0.00 0.00 0.00 34 1016.1
20260503185059 15 177 20.9 46.7 0.00 0.00 0.00 33 1016.1
20260503184626 15 132 22.5 46.7 0.00 0.00 0.00 34 1016.1
20260503184059 14 162 17.7 37.0 0.00 0.00 0.00 34 1016.2
20260503183559 14 113 20.9 37.0 0.00 0.00 0.00 35 1016.2
20260503183101 13 141 19.3 38.6 0.00 0.00 0.00 35 1016.1
20260503182602 14 115 19.3 38.6 0.00 0.00 0.00 35 1016.3
20260503182058 14 86 17.7 38.6 0.00 0.00 0.00 36 1016.3
20260503181614 15 91 14.5 29.0 0.00 0.00 0.00 34 1016.2
20260503181101 14 230 12.9 30.6 0.00 0.00 0.00 36 1016.3
20260503180600 14 81 12.9 30.6 0.00 0.00 0.00 36 1016.4
20260503180116 14 150 16.1 33.8 0.00 0.00 0.00 36 1016.5
20260503175557 14 77 14.5 37.0 0.00 0.00 0.00 35 1016.7
20260503175058 13 101 9.7 38.6 0.00 0.00 0.00 37 1016.8
20260503174559 13 136 17.7 38.6 0.00 0.00 0.00 37 1016.8
20260503174058 14 49 12.9 33.8 0.00 0.00 0.00 36 1016.8
20260503173558 14 103 14.5 33.8 0.00 0.00 0.00 36 1016.8
20260503173106 14 18 9.7 24.1 0.00 0.00 0.00 36 1016.6
20260503172558 13 75 11.3 32.2 0.00 0.00 0.00 36 1016.6
20260503172058 13 115 11.3 32.2 0.00 0.00 0.00 36 1016.8
20260503171559 13 94 14.5 35.4 0.00 0.00 0.00 34 1016.8
20260503171058 14 89 14.5 35.4 0.00 0.00 0.00 35 1016.8
20260503170559 14 140 9.7 25.7 0.00 0.00 0.00 36 1016.6
20260503150558 6 0 0.0 3.2 0.00 0.00 0.00 78 1018.1
20260503150109 6 0 0.0 3.2 0.00 0.00 0.00 78 1018.1
20260503131058 0 0 0.0 1.6 0.00 0.00 0.00 90 1018.1
20260503130559 0 176 0.0 1.6 0.00 0.00 0.00 87 1018.1
20260503110557 2 0 0.0 0.0 0.00 0.00 0.00 79 1018.5
20260503100116 3 0 1.6 4.8 0.00 0.00 0.00 75 1019.0
20260503081557 5 0 0.0 1.6 0.00 0.00 0.00 73 1019.4
20260503081057 5 0 0.0 3.2 0.00 0.00 0.00 73 1019.5
20260503080558 5 0 1.6 3.2 0.00 0.00 0.00 72 1019.4
20260503080107 5 176 0.0 3.2 0.00 0.00 0.00 71 1019.5
20260503072557 6 0 0.0 3.2 0.00 0.00 0.00 70 1019.8
20260503072059 6 167 1.6 3.2 0.00 0.00 0.00 66 1019.7
20260503071602 6 176 0.0 3.2 0.00 0.00 0.00 67 1019.8
20260503071102 6 179 0.0 3.2 0.00 0.00 0.00 66 1019.7
20260503070557 6 150 0.0 0.0 0.00 0.00 0.00 66 1019.7
20260503070104 6 0 0.0 0.0 0.00 0.00 0.00 65 1019.8
20260503055100 8 166 1.6 3.2 0.00 0.00 0.00 61 1020.0
20260503054600 8 176 1.6 3.2 0.00 0.00 0.00 61 1020.0
20260503054057 8 0 0.0 1.6 0.00 0.00 0.00 61 1020.0
20260503053558 8 172 1.6 1.6 0.00 0.00 0.00 60 1019.9
20260503053056 8 245 0.0 1.6 0.00 0.00 0.00 60 1019.9
20260503052558 8 0 0.0 6.4 0.00 0.00 0.00 60 1020.0
20260503052100 8 46 0.0 8.0 0.00 0.00 0.00 60 1019.9
20260503051558 8 0 3.2 8.0 0.00 0.00 0.00 60 1019.9
20260503051057 8 78 3.2 6.4 0.00 0.00 0.00 57 1019.8
20260503050558 8 0 0.0 3.2 0.00 0.00 0.00 57 1019.7
20260503050056 8 205 1.6 1.6 0.00 0.00 0.00 58 1019.7
20260503045600 8 0 0.0 1.6 0.00 0.00 0.00 58 1019.7
20260503045059 8 158 0.0 1.6 0.00 0.00 0.00 57 1019.7
20260503044608 9 0 0.0 1.6 0.00 0.00 0.00 57 1019.5
20260503044057 10 0 0.0 1.6 0.00 0.00 0.00 56 1019.5
20260503043557 10 0 0.0 4.8 0.00 0.00 0.00 55 1019.5
20260503043058 10 0 0.0 4.8 0.00 0.00 0.00 54 1019.5
20260503042557 10 194 0.0 4.8 0.00 0.00 0.00 55 1019.6
20260503042058 11 0 0.0 4.8 0.00 0.00 0.00 54 1019.5
20260503041601 11 229 0.0 4.8 0.00 0.00 0.00 53 1019.6
20260503041059 11 0 1.6 3.2 0.00 0.00 0.00 52 1019.5
20260503040559 11 0 0.0 1.6 0.00 0.00 0.00 52 1019.7
20260503040104 11 0 0.0 1.6 0.00 0.00 0.00 52 1019.7
20260503035558 11 0 0.0 4.8 0.00 0.00 0.00 52 1019.7
20260503035101 11 0 0.0 8.0 0.00 0.00 0.00 51 1019.6
20260503034602 11 57 4.8 9.7 0.00 0.00 0.00 51 1019.7
20260503034058 11 52 6.4 9.7 0.00 0.00 0.00 51 1019.3
20260503033601 11 336 3.2 9.7 0.00 0.00 0.00 46 1019.4
20260503033058 11 75 4.8 8.0 0.00 0.00 0.00 50 1019.3
20260503032558 11 243 0.0 8.0 0.00 0.00 0.00 52 1019.2
20260503032100 11 0 0.0 8.0 0.00 0.00 0.00 53 1019.6